Year,Month,Day,Hour,Minute,Value (Times are PST for temperature in C)
2015,02,15,00,00,4.10
2015,02,15,00,01,4.10
2015,02,15,00,02,4.10
2015,02,15,00,03,4.10
2015,02,15,00,04,4.10
2015,02,15,00,05,4.10
2015,02,15,00,06,4.10
2015,02,15,00,07,4.10
2015,02,15,00,08,4.10
2015,02,15,00,09,4.20
2015,02,15,00,10,4.30
2015,02,15,00,11,4.40
2015,02,15,00,12,4.50
2015,02,15,00,13,4.60
2015,02,15,00,14,4.60
2015,02,15,00,15,4.80
2015,02,15,00,16,4.80
2015,02,15,00,17,4.90
2015,02,15,00,18,5.00
2015,02,15,00,19,5.10
2015,02,15,00,20,5.10
2015,02,15,00,21,5.20
2015,02,15,00,22,5.20
2015,02,15,00,23,5.20
2015,02,15,00,24,5.20
2015,02,15,00,25,5.20
2015,02,15,00,26,5.20
2015,02,15,00,27,5.20
2015,02,15,00,28,5.20
2015,02,15,00,29,5.20
2015,02,15,00,30,5.20
2015,02,15,00,31,5.20
2015,02,15,00,32,5.30
2015,02,15,00,33,5.30
2015,02,15,00,34,5.20
2015,02,15,00,35,5.20
2015,02,15,00,36,5.20
2015,02,15,00,37,5.20
2015,02,15,00,38,5.20
2015,02,15,00,39,5.20
2015,02,15,00,40,5.10
2015,02,15,00,41,5.00
2015,02,15,00,42,4.90
2015,02,15,00,43,4.70
2015,02,15,00,44,4.60
2015,02,15,00,45,4.50
2015,02,15,00,46,4.40
2015,02,15,00,47,4.30
2015,02,15,00,48,4.20
2015,02,15,00,49,4.10
2015,02,15,00,50,4.00
2015,02,15,00,51,4.00
2015,02,15,00,52,3.90
2015,02,15,00,53,3.80
2015,02,15,00,54,3.80
2015,02,15,00,55,3.80
2015,02,15,00,56,3.70
2015,02,15,00,57,3.70
2015,02,15,00,58,3.70
2015,02,15,00,59,3.70
2015,02,15,01,00,3.70
2015,02,15,01,01,3.70
2015,02,15,01,02,3.70
2015,02,15,01,03,3.70
2015,02,15,01,04,3.70
2015,02,15,01,05,3.70
2015,02,15,01,06,3.70
2015,02,15,01,07,3.70
2015,02,15,01,08,3.70
2015,02,15,01,09,3.70
2015,02,15,01,10,3.80
2015,02,15,01,11,3.80
2015,02,15,01,12,3.80
2015,02,15,01,13,3.80
2015,02,15,01,14,3.80
2015,02,15,01,15,3.80
2015,02,15,01,16,3.80
2015,02,15,01,17,3.80
2015,02,15,01,18,3.80
2015,02,15,01,19,3.80
2015,02,15,01,20,3.80
2015,02,15,01,21,3.80
2015,02,15,01,22,3.80
2015,02,15,01,23,3.80
2015,02,15,01,24,3.80
2015,02,15,01,25,3.90
2015,02,15,01,26,3.90
2015,02,15,01,27,3.90
2015,02,15,01,28,3.90
2015,02,15,01,29,3.90
2015,02,15,01,30,3.90
2015,02,15,01,31,3.90
2015,02,15,01,32,3.90
2015,02,15,01,33,3.80
2015,02,15,01,34,3.80
2015,02,15,01,35,3.70
2015,02,15,01,36,3.70
2015,02,15,01,37,3.60
2015,02,15,01,38,3.60
2015,02,15,01,39,3.60
2015,02,15,01,40,3.60
2015,02,15,01,41,3.50
2015,02,15,01,42,3.50
2015,02,15,01,43,3.50
2015,02,15,01,44,3.50
2015,02,15,01,45,3.40
2015,02,15,01,46,3.40
2015,02,15,01,47,3.40
2015,02,15,01,48,3.30
2015,02,15,01,49,3.30
2015,02,15,01,50,3.30
2015,02,15,01,51,3.30
2015,02,15,01,52,3.30
2015,02,15,01,53,3.40
2015,02,15,01,54,3.40
2015,02,15,01,55,3.40
2015,02,15,01,56,3.40
2015,02,15,01,57,3.40
2015,02,15,01,58,3.40
2015,02,15,01,59,3.30
2015,02,15,02,00,3.30
2015,02,15,02,01,3.30
2015,02,15,02,02,3.30
2015,02,15,02,03,3.30
2015,02,15,02,04,3.30
2015,02,15,02,05,3.30
2015,02,15,02,06,3.30
2015,02,15,02,07,3.30
2015,02,15,02,08,3.20
2015,02,15,02,09,3.20
2015,02,15,02,10,3.20
2015,02,15,02,11,3.20
2015,02,15,02,12,3.20
2015,02,15,02,13,3.20
2015,02,15,02,14,3.20
2015,02,15,02,15,3.20
2015,02,15,02,16,3.20
2015,02,15,02,17,3.20
2015,02,15,02,18,3.20
2015,02,15,02,19,3.20
2015,02,15,02,20,3.20
2015,02,15,02,21,3.20
2015,02,15,02,22,3.20
2015,02,15,02,23,3.20
2015,02,15,02,24,3.20
2015,02,15,02,25,3.30
2015,02,15,02,26,3.20
2015,02,15,02,27,3.30
2015,02,15,02,28,3.30
2015,02,15,02,29,3.20
2015,02,15,02,30,3.30
2015,02,15,02,31,3.30
2015,02,15,02,32,3.30
2015,02,15,02,33,3.30
2015,02,15,02,34,3.30
2015,02,15,02,35,3.30
2015,02,15,02,36,3.30
2015,02,15,02,37,3.20
2015,02,15,02,38,3.20
2015,02,15,02,39,3.10
2015,02,15,02,40,3.00
2015,02,15,02,41,2.90
2015,02,15,02,42,2.80
2015,02,15,02,43,2.80
2015,02,15,02,44,2.70
2015,02,15,02,45,2.70
2015,02,15,02,46,2.70
2015,02,15,02,47,2.60
2015,02,15,02,48,2.60
2015,02,15,02,49,2.60
2015,02,15,02,50,2.60
2015,02,15,02,51,2.60
2015,02,15,02,52,2.50
2015,02,15,02,53,2.60
2015,02,15,02,54,2.60
2015,02,15,02,55,2.60
2015,02,15,02,56,2.60
2015,02,15,02,57,2.60
2015,02,15,02,58,2.60
2015,02,15,02,59,2.60
2015,02,15,03,00,2.60
2015,02,15,03,01,2.60
2015,02,15,03,02,2.60
2015,02,15,03,03,2.60
2015,02,15,03,04,2.60
2015,02,15,03,05,2.60
2015,02,15,03,06,2.60
2015,02,15,03,07,2.60
2015,02,15,03,08,2.70
2015,02,15,03,09,2.70
2015,02,15,03,10,2.70
2015,02,15,03,11,2.70
2015,02,15,03,12,2.70
2015,02,15,03,13,2.60
2015,02,15,03,14,2.60
2015,02,15,03,15,2.60
2015,02,15,03,16,2.60
2015,02,15,03,17,2.60
2015,02,15,03,18,2.60
2015,02,15,03,19,2.60
2015,02,15,03,20,2.50
2015,02,15,03,21,2.50
2015,02,15,03,22,2.50
2015,02,15,03,23,2.50
2015,02,15,03,24,2.50
2015,02,15,03,25,2.40
2015,02,15,03,26,2.40
2015,02,15,03,27,2.40
2015,02,15,03,28,2.40
2015,02,15,03,29,2.30
2015,02,15,03,30,2.30
2015,02,15,03,31,2.20
2015,02,15,03,32,2.20
2015,02,15,03,33,2.20
2015,02,15,03,34,2.20
2015,02,15,03,35,2.20
2015,02,15,03,36,2.20
2015,02,15,03,37,2.20
2015,02,15,03,38,2.20
2015,02,15,03,39,2.20
2015,02,15,03,40,2.20
2015,02,15,03,41,2.20
2015,02,15,03,42,2.20
2015,02,15,03,43,2.20
2015,02,15,03,44,2.20
2015,02,15,03,45,2.20
2015,02,15,03,46,2.20
2015,02,15,03,47,2.20
2015,02,15,03,48,2.20
2015,02,15,03,49,2.20
2015,02,15,03,50,2.20
2015,02,15,03,51,2.20
2015,02,15,03,52,2.30
2015,02,15,03,53,2.20
2015,02,15,03,54,2.20
2015,02,15,03,55,2.20
2015,02,15,03,56,2.20
2015,02,15,03,57,2.20
2015,02,15,03,58,2.20
2015,02,15,03,59,2.20
2015,02,15,04,00,2.20
2015,02,15,04,01,2.10
2015,02,15,04,02,2.10
2015,02,15,04,03,2.10
2015,02,15,04,04,2.10
2015,02,15,04,05,2.10
2015,02,15,04,06,2.10
2015,02,15,04,07,2.10
2015,02,15,04,08,2.10
2015,02,15,04,09,2.10
2015,02,15,04,10,2.10
2015,02,15,04,11,2.10
2015,02,15,04,12,2.10
2015,02,15,04,13,2.10
2015,02,15,04,14,2.10
2015,02,15,04,15,2.10
2015,02,15,04,16,2.00
2015,02,15,04,17,2.00
2015,02,15,04,18,2.00
2015,02,15,04,19,2.00
2015,02,15,04,20,1.90
2015,02,15,04,21,1.90
2015,02,15,04,22,1.90
2015,02,15,04,23,1.90
2015,02,15,04,24,1.90
2015,02,15,04,25,1.90
2015,02,15,04,26,1.80
2015,02,15,04,27,1.80
2015,02,15,04,28,1.80
2015,02,15,04,29,1.80
2015,02,15,04,30,1.80
2015,02,15,04,31,1.80
2015,02,15,04,32,1.80
2015,02,15,04,33,1.70
2015,02,15,04,34,1.70
2015,02,15,04,35,1.70
2015,02,15,04,36,1.70
2015,02,15,04,37,1.70
2015,02,15,04,38,1.70
2015,02,15,04,39,1.70
2015,02,15,04,40,1.70
2015,02,15,04,41,1.70
2015,02,15,04,42,1.70
2015,02,15,04,43,1.60
2015,02,15,04,44,1.60
2015,02,15,04,45,1.60
2015,02,15,04,46,1.60
2015,02,15,04,47,1.60
2015,02,15,04,48,1.60
2015,02,15,04,49,1.60
2015,02,15,04,50,1.60
2015,02,15,04,51,1.60
2015,02,15,04,52,1.60
2015,02,15,04,53,1.60
2015,02,15,04,54,1.60
2015,02,15,04,55,1.60
2015,02,15,04,56,1.60
2015,02,15,04,57,1.60
2015,02,15,04,58,1.60
2015,02,15,04,59,1.50
2015,02,15,05,00,1.50
2015,02,15,05,01,1.50
2015,02,15,05,02,1.50
2015,02,15,05,03,1.50
2015,02,15,05,04,1.50
2015,02,15,05,05,1.40
2015,02,15,05,06,1.40
2015,02,15,05,07,1.40
2015,02,15,05,08,1.40
2015,02,15,05,09,1.30
2015,02,15,05,10,1.30
2015,02,15,05,11,1.30
2015,02,15,05,12,1.30
2015,02,15,05,13,1.30
2015,02,15,05,14,1.30
2015,02,15,05,15,1.30
2015,02,15,05,16,1.30
2015,02,15,05,17,1.30
2015,02,15,05,18,1.40
2015,02,15,05,19,1.40
2015,02,15,05,20,1.40
2015,02,15,05,21,1.50
2015,02,15,05,22,1.50
2015,02,15,05,23,1.50
2015,02,15,05,24,1.50
2015,02,15,05,25,1.60
2015,02,15,05,26,1.60
2015,02,15,05,27,1.60
2015,02,15,05,28,1.60
2015,02,15,05,29,1.60
2015,02,15,05,30,1.70
2015,02,15,05,31,1.70
2015,02,15,05,32,1.70
2015,02,15,05,33,1.70
2015,02,15,05,34,1.70
2015,02,15,05,35,1.70
2015,02,15,05,36,1.70
2015,02,15,05,37,1.70
2015,02,15,05,38,1.70
2015,02,15,05,39,1.70
2015,02,15,05,40,1.70
2015,02,15,05,41,1.60
2015,02,15,05,42,1.60
2015,02,15,05,43,1.60
2015,02,15,05,44,1.60
2015,02,15,05,45,1.60
2015,02,15,05,46,1.60
2015,02,15,05,47,1.60
2015,02,15,05,48,1.60
2015,02,15,05,49,1.60
2015,02,15,05,50,1.60
2015,02,15,05,51,1.50
2015,02,15,05,52,1.50
2015,02,15,05,53,1.50
2015,02,15,05,54,1.40
2015,02,15,05,55,1.40
2015,02,15,05,56,1.30
2015,02,15,05,57,1.30
2015,02,15,05,58,1.30
2015,02,15,05,59,1.30
2015,02,15,06,00,1.30
2015,02,15,06,01,1.30
2015,02,15,06,02,1.30
2015,02,15,06,03,1.30
2015,02,15,06,04,1.30
2015,02,15,06,05,1.30
2015,02,15,06,06,1.40
2015,02,15,06,07,1.40
2015,02,15,06,08,1.40
2015,02,15,06,09,1.40
2015,02,15,06,10,1.40
2015,02,15,06,11,1.40
2015,02,15,06,12,1.50
2015,02,15,06,13,1.50
2015,02,15,06,14,1.50
2015,02,15,06,15,1.50
2015,02,15,06,16,1.50
2015,02,15,06,17,1.50
2015,02,15,06,18,1.50
2015,02,15,06,19,1.50
2015,02,15,06,20,1.60
2015,02,15,06,21,1.60
2015,02,15,06,22,1.60
2015,02,15,06,23,1.70
2015,02,15,06,24,1.70
2015,02,15,06,25,1.70
2015,02,15,06,26,1.70
2015,02,15,06,27,1.70
2015,02,15,06,28,1.70
2015,02,15,06,29,1.60
2015,02,15,06,30,1.50
2015,02,15,06,31,1.50
2015,02,15,06,32,1.40
2015,02,15,06,33,1.40
2015,02,15,06,34,1.30
2015,02,15,06,35,1.30
2015,02,15,06,36,1.30
2015,02,15,06,37,1.30
2015,02,15,06,38,1.30
2015,02,15,06,39,1.30
2015,02,15,06,40,1.30
2015,02,15,06,41,1.20
2015,02,15,06,42,1.20
2015,02,15,06,43,1.20
2015,02,15,06,44,1.20
2015,02,15,06,45,1.20
2015,02,15,06,46,1.20
2015,02,15,06,47,1.20
2015,02,15,06,48,1.20
2015,02,15,06,49,1.20
2015,02,15,06,50,1.10
2015,02,15,06,51,1.10
2015,02,15,06,52,1.10
2015,02,15,06,53,1.10
2015,02,15,06,54,1.10
2015,02,15,06,55,1.10
2015,02,15,06,56,1.10
2015,02,15,06,57,1.10
2015,02,15,06,58,1.10
2015,02,15,06,59,1.00
2015,02,15,07,00,1.00
2015,02,15,07,01,1.00
2015,02,15,07,02,1.00
2015,02,15,07,03,1.00
2015,02,15,07,04,1.00
2015,02,15,07,05,1.00
2015,02,15,07,06,0.90
2015,02,15,07,07,0.90
2015,02,15,07,08,0.90
2015,02,15,07,09,0.90
2015,02,15,07,10,0.90
2015,02,15,07,11,0.90
2015,02,15,07,12,0.90
2015,02,15,07,13,1.00
2015,02,15,07,14,1.00
2015,02,15,07,15,1.00
2015,02,15,07,16,1.00
2015,02,15,07,17,1.00
2015,02,15,07,18,1.10
2015,02,15,07,19,1.10
2015,02,15,07,20,1.10
2015,02,15,07,21,1.10
2015,02,15,07,22,1.10
2015,02,15,07,23,1.20
2015,02,15,07,24,1.20
2015,02,15,07,25,1.20
2015,02,15,07,26,1.20
2015,02,15,07,27,1.20
2015,02,15,07,28,1.20
2015,02,15,07,29,1.20
2015,02,15,07,30,1.20
2015,02,15,07,31,1.20
2015,02,15,07,32,1.20
2015,02,15,07,33,1.20
2015,02,15,07,34,1.20
2015,02,15,07,35,1.20
2015,02,15,07,36,1.30
2015,02,15,07,37,1.30
2015,02,15,07,38,1.30
2015,02,15,07,39,1.30
2015,02,15,07,40,1.30
2015,02,15,07,41,1.30
2015,02,15,07,42,1.30
2015,02,15,07,43,1.30
2015,02,15,07,44,1.30
2015,02,15,07,45,1.30
2015,02,15,07,46,1.20
2015,02,15,07,47,1.20
2015,02,15,07,48,1.20
2015,02,15,07,49,1.20
2015,02,15,07,50,1.20
2015,02,15,07,51,1.10
2015,02,15,07,52,1.10
2015,02,15,07,53,1.10
2015,02,15,07,54,1.10
2015,02,15,07,55,1.10
2015,02,15,07,56,1.10
2015,02,15,07,57,1.10
2015,02,15,07,58,1.10
2015,02,15,07,59,1.10
2015,02,15,08,00,1.10
2015,02,15,08,01,1.10
2015,02,15,08,02,1.10
2015,02,15,08,03,1.10
2015,02,15,08,04,1.20
2015,02,15,08,05,1.20
2015,02,15,08,06,1.20
2015,02,15,08,07,1.20
2015,02,15,08,08,1.20
2015,02,15,08,09,1.20
2015,02,15,08,10,1.20
2015,02,15,08,11,1.20
2015,02,15,08,12,1.20
2015,02,15,08,13,1.20
2015,02,15,08,14,1.20
2015,02,15,08,15,1.20
2015,02,15,08,16,1.20
2015,02,15,08,17,1.30
2015,02,15,08,18,1.30
2015,02,15,08,19,1.40
2015,02,15,08,20,1.40
2015,02,15,08,21,1.40
2015,02,15,08,22,1.50
2015,02,15,08,23,1.50
2015,02,15,08,24,1.60
2015,02,15,08,25,1.60
2015,02,15,08,26,1.60
2015,02,15,08,27,1.70
2015,02,15,08,28,1.70
2015,02,15,08,29,1.70
2015,02,15,08,30,1.70
2015,02,15,08,31,1.70
2015,02,15,08,32,1.70
2015,02,15,08,33,1.70
2015,02,15,08,34,1.60
2015,02,15,08,35,1.60
2015,02,15,08,36,1.60
2015,02,15,08,37,1.60
2015,02,15,08,38,1.60
2015,02,15,08,39,1.60
2015,02,15,08,40,1.60
2015,02,15,08,41,1.60
2015,02,15,08,42,1.60
2015,02,15,08,43,1.60
2015,02,15,08,44,1.70
2015,02,15,08,45,1.70
2015,02,15,08,46,1.70
2015,02,15,08,47,1.70
2015,02,15,08,48,1.80
2015,02,15,08,49,1.80
2015,02,15,08,50,1.90
2015,02,15,08,51,1.90
2015,02,15,08,52,2.00
2015,02,15,08,53,2.10
2015,02,15,08,54,2.20
2015,02,15,08,55,2.20
2015,02,15,08,56,2.30
2015,02,15,08,57,2.30
2015,02,15,08,58,2.30
2015,02,15,08,59,2.40
2015,02,15,09,00,2.60
2015,02,15,09,01,2.80
2015,02,15,09,02,3.00
2015,02,15,09,03,3.20
2015,02,15,09,04,3.40
2015,02,15,09,05,3.60
2015,02,15,09,06,3.80
2015,02,15,09,07,3.90
2015,02,15,09,08,4.10
2015,02,15,09,09,4.10
2015,02,15,09,10,4.20
2015,02,15,09,11,4.30
2015,02,15,09,12,4.40
2015,02,15,09,13,4.50
2015,02,15,09,14,4.50
2015,02,15,09,15,4.60
2015,02,15,09,16,4.60
2015,02,15,09,17,4.70
2015,02,15,09,18,4.70
2015,02,15,09,19,4.70
2015,02,15,09,20,4.80
2015,02,15,09,21,4.80
2015,02,15,09,22,4.80
2015,02,15,09,23,4.80
2015,02,15,09,24,4.80
2015,02,15,09,25,4.80
2015,02,15,09,26,4.80
2015,02,15,09,27,4.90
2015,02,15,09,28,4.90
2015,02,15,09,29,5.00
2015,02,15,09,30,5.00
2015,02,15,09,31,5.10
2015,02,15,09,32,5.10
2015,02,15,09,33,5.10
2015,02,15,09,34,5.20
2015,02,15,09,35,5.20
2015,02,15,09,36,5.20
2015,02,15,09,37,5.20
2015,02,15,09,38,5.20
2015,02,15,09,39,5.20
2015,02,15,09,40,5.20
2015,02,15,09,41,5.30
2015,02,15,09,42,5.30
2015,02,15,09,43,5.30
2015,02,15,09,44,5.30
2015,02,15,09,45,5.30
2015,02,15,09,46,5.40
2015,02,15,09,47,5.50
2015,02,15,09,48,5.60
2015,02,15,09,49,5.80
2015,02,15,09,50,5.90
2015,02,15,09,51,5.90
2015,02,15,09,52,6.10
2015,02,15,09,53,6.20
2015,02,15,09,54,6.40
2015,02,15,09,55,6.50
2015,02,15,09,56,6.70
2015,02,15,09,57,6.80
2015,02,15,09,58,6.90
2015,02,15,09,59,7.00
2015,02,15,10,00,7.10
2015,02,15,10,01,7.10
2015,02,15,10,02,7.10
2015,02,15,10,03,7.10
2015,02,15,10,04,7.20
2015,02,15,10,05,7.20
2015,02,15,10,06,7.20
2015,02,15,10,07,7.20
2015,02,15,10,08,7.30
2015,02,15,10,09,7.30
2015,02,15,10,10,7.30
2015,02,15,10,11,7.40
2015,02,15,10,12,7.40
2015,02,15,10,13,7.50
2015,02,15,10,14,7.50
2015,02,15,10,15,7.50
2015,02,15,10,16,7.60
2015,02,15,10,17,7.60
2015,02,15,10,18,7.60
2015,02,15,10,19,7.70
2015,02,15,10,20,7.70
2015,02,15,10,21,7.70
2015,02,15,10,22,7.80
2015,02,15,10,23,7.80
2015,02,15,10,24,7.90
2015,02,15,10,25,7.90
2015,02,15,10,26,7.90
2015,02,15,10,27,7.90
2015,02,15,10,28,7.90
2015,02,15,10,29,7.90
2015,02,15,10,30,8.00
2015,02,15,10,31,8.00
2015,02,15,10,32,8.10
2015,02,15,10,33,8.00
2015,02,15,10,34,8.10
2015,02,15,10,35,8.10
2015,02,15,10,36,8.10
2015,02,15,10,37,8.10
2015,02,15,10,38,8.10
2015,02,15,10,39,8.10
2015,02,15,10,40,8.10
2015,02,15,10,41,8.20
2015,02,15,10,42,8.30
2015,02,15,10,43,8.30
2015,02,15,10,44,8.30
2015,02,15,10,45,8.30
2015,02,15,10,46,8.30
2015,02,15,10,47,8.30
2015,02,15,10,48,8.30
2015,02,15,10,49,8.30
2015,02,15,10,50,8.30
2015,02,15,10,51,8.30
2015,02,15,10,52,8.30
2015,02,15,10,53,8.30
2015,02,15,10,54,8.30
2015,02,15,10,55,8.40
2015,02,15,10,56,8.40
2015,02,15,10,57,8.40
2015,02,15,10,58,8.40
2015,02,15,10,59,8.50
2015,02,15,11,00,8.50
2015,02,15,11,01,8.50
2015,02,15,11,02,8.50
2015,02,15,11,03,8.50
2015,02,15,11,04,8.60
2015,02,15,11,05,8.60
2015,02,15,11,06,8.60
2015,02,15,11,07,8.70
2015,02,15,11,08,8.70
2015,02,15,11,09,8.70
2015,02,15,11,10,8.80
2015,02,15,11,11,8.80
2015,02,15,11,12,8.80
2015,02,15,11,13,8.80
2015,02,15,11,14,8.80
2015,02,15,11,15,8.80
2015,02,15,11,16,8.80
2015,02,15,11,17,8.80
2015,02,15,11,18,8.80
2015,02,15,11,19,8.80
2015,02,15,11,20,8.80
2015,02,15,11,21,8.80
2015,02,15,11,22,8.80
2015,02,15,11,23,8.80
2015,02,15,11,24,8.80
2015,02,15,11,25,8.70
2015,02,15,11,26,8.70
2015,02,15,11,27,8.70
2015,02,15,11,28,8.60
2015,02,15,11,29,8.60
2015,02,15,11,30,8.60
2015,02,15,11,31,8.70
2015,02,15,11,32,8.60
2015,02,15,11,33,8.60
2015,02,15,11,34,8.60
2015,02,15,11,35,8.60
2015,02,15,11,36,8.70
2015,02,15,11,37,8.70
2015,02,15,11,38,8.70
2015,02,15,11,39,8.80
2015,02,15,11,40,8.80
2015,02,15,11,41,8.80
2015,02,15,11,42,8.90
2015,02,15,11,43,9.00
2015,02,15,11,44,9.10
2015,02,15,11,45,9.20
2015,02,15,11,46,9.20
2015,02,15,11,47,9.20
2015,02,15,11,48,9.20
2015,02,15,11,49,9.20
2015,02,15,11,50,9.20
2015,02,15,11,51,9.20
2015,02,15,11,52,9.20
2015,02,15,11,53,9.20
2015,02,15,11,54,9.20
2015,02,15,11,55,9.20
2015,02,15,11,56,9.30
2015,02,15,11,57,9.30
2015,02,15,11,58,9.40
2015,02,15,11,59,9.40
2015,02,15,12,00,9.40
2015,02,15,12,01,9.40
2015,02,15,12,02,9.40
2015,02,15,12,03,9.40
2015,02,15,12,04,9.40
2015,02,15,12,05,9.40
2015,02,15,12,06,9.40
2015,02,15,12,07,9.40
2015,02,15,12,08,9.40
2015,02,15,12,09,9.40
2015,02,15,12,10,9.50
2015,02,15,12,11,9.50
2015,02,15,12,12,9.60
2015,02,15,12,13,9.60
2015,02,15,12,14,9.70
2015,02,15,12,15,9.70
2015,02,15,12,16,9.80
2015,02,15,12,17,9.90
2015,02,15,12,18,10.00
2015,02,15,12,19,10.10
2015,02,15,12,20,10.10
2015,02,15,12,21,10.20
2015,02,15,12,22,10.20
2015,02,15,12,23,10.20
2015,02,15,12,24,10.20
2015,02,15,12,25,10.20
2015,02,15,12,26,10.20
2015,02,15,12,27,10.20
2015,02,15,12,28,10.20
2015,02,15,12,29,10.30
2015,02,15,12,30,10.40
2015,02,15,12,31,10.40
2015,02,15,12,32,10.60
2015,02,15,12,33,10.70
2015,02,15,12,34,10.70
2015,02,15,12,35,10.60
2015,02,15,12,36,10.50
2015,02,15,12,37,10.40
2015,02,15,12,38,10.30
2015,02,15,12,39,10.30
2015,02,15,12,40,10.20
2015,02,15,12,41,10.20
2015,02,15,12,42,10.30
2015,02,15,12,43,10.30
2015,02,15,12,44,10.40
2015,02,15,12,45,10.50
2015,02,15,12,46,10.60
2015,02,15,12,47,10.70
2015,02,15,12,48,10.70
2015,02,15,12,49,10.70
2015,02,15,12,50,10.70
2015,02,15,12,51,10.80
2015,02,15,12,52,10.80
2015,02,15,12,53,10.80
2015,02,15,12,54,10.70
2015,02,15,12,55,10.70
2015,02,15,12,56,10.60
2015,02,15,12,57,10.60
2015,02,15,12,58,10.60
2015,02,15,12,59,10.60
2015,02,15,13,00,10.70
2015,02,15,13,01,10.80
2015,02,15,13,02,10.80
2015,02,15,13,03,10.80
2015,02,15,13,04,10.80
2015,02,15,13,05,10.80
2015,02,15,13,06,10.90
2015,02,15,13,07,10.90
2015,02,15,13,08,10.90
2015,02,15,13,09,10.90
2015,02,15,13,10,10.80
2015,02,15,13,11,10.80
2015,02,15,13,12,10.80
2015,02,15,13,13,10.80
2015,02,15,13,14,10.90
2015,02,15,13,15,10.90
2015,02,15,13,16,10.90
2015,02,15,13,17,11.00
2015,02,15,13,18,11.00
2015,02,15,13,19,11.00
2015,02,15,13,20,11.00
2015,02,15,13,21,11.00
2015,02,15,13,22,11.00
2015,02,15,13,24,11.10
2015,02,15,13,25,11.20
2015,02,15,13,26,11.20
2015,02,15,13,27,11.20
2015,02,15,13,28,11.30
2015,02,15,13,29,11.40
2015,02,15,13,30,11.50
2015,02,15,13,31,11.50
2015,02,15,13,32,11.60
2015,02,15,13,33,11.70
2015,02,15,13,34,11.70
2015,02,15,13,35,11.70
2015,02,15,13,36,11.80
2015,02,15,13,37,11.80
2015,02,15,13,38,11.90
2015,02,15,13,39,12.00
2015,02,15,13,40,12.10
2015,02,15,13,41,12.10
2015,02,15,13,43,12.10
2015,02,15,13,44,12.10
2015,02,15,13,45,12.10
2015,02,15,13,46,12.00
2015,02,15,13,47,12.00
2015,02,15,13,48,12.00
2015,02,15,13,49,12.00
2015,02,15,13,50,12.00
2015,02,15,13,51,11.90
2015,02,15,13,52,11.90
2015,02,15,13,53,11.80
2015,02,15,13,54,11.70
2015,02,15,13,55,11.70
2015,02,15,13,56,11.70
2015,02,15,13,57,11.60
2015,02,15,13,58,11.70
2015,02,15,13,59,11.70
2015,02,15,14,00,11.70
2015,02,15,14,01,11.70
2015,02,15,14,02,11.70
2015,02,15,14,03,11.70
2015,02,15,14,04,11.70
2015,02,15,14,05,11.70
2015,02,15,14,06,11.70
2015,02,15,14,07,11.70
2015,02,15,14,08,11.80
2015,02,15,14,09,11.80
2015,02,15,14,10,11.90
2015,02,15,14,11,11.90
2015,02,15,14,12,11.90
2015,02,15,14,13,11.80
2015,02,15,14,14,11.80
2015,02,15,14,15,11.80
2015,02,15,14,16,11.80
2015,02,15,14,17,11.80
2015,02,15,14,18,11.80
2015,02,15,14,19,11.90
2015,02,15,14,20,11.90
2015,02,15,14,21,12.00
2015,02,15,14,22,12.00
2015,02,15,14,23,12.00
2015,02,15,14,24,12.00
2015,02,15,14,25,12.10
2015,02,15,14,26,12.10
2015,02,15,14,27,12.10
2015,02,15,14,28,12.10
2015,02,15,14,29,12.10
2015,02,15,14,30,12.10
2015,02,15,14,31,12.10
2015,02,15,14,32,12.10
2015,02,15,14,33,12.10
2015,02,15,14,34,12.10
2015,02,15,14,35,12.10
2015,02,15,14,36,12.10
2015,02,15,14,37,12.20
2015,02,15,14,38,12.20
2015,02,15,14,39,12.30
2015,02,15,14,40,12.30
2015,02,15,14,41,12.30
2015,02,15,14,43,12.30
2015,02,15,14,44,12.30
2015,02,15,14,45,12.40
2015,02,15,14,46,12.40
2015,02,15,14,47,12.30
2015,02,15,14,48,12.30
2015,02,15,14,49,12.30
2015,02,15,14,50,12.20
2015,02,15,14,51,12.10
2015,02,15,14,52,12.10
2015,02,15,14,53,12.20
2015,02,15,14,54,12.20
2015,02,15,14,55,12.20
2015,02,15,14,56,12.20
2015,02,15,14,57,12.20
2015,02,15,14,58,12.20
2015,02,15,14,59,12.20
2015,02,15,15,01,12.10
2015,02,15,15,02,12.10
2015,02,15,15,03,12.10
2015,02,15,15,04,12.10
2015,02,15,15,05,12.20
2015,02,15,15,06,12.20
2015,02,15,15,07,12.20
2015,02,15,15,08,12.20
2015,02,15,15,09,12.20
2015,02,15,15,11,12.20
2015,02,15,15,12,12.30
2015,02,15,15,13,12.30
2015,02,15,15,14,12.30
2015,02,15,15,15,12.30
2015,02,15,15,17,12.10
2015,02,15,15,18,12.10
2015,02,15,15,19,12.10
2015,02,15,15,20,12.10
2015,02,15,15,21,12.10
2015,02,15,15,22,12.10
2015,02,15,15,23,12.10
2015,02,15,15,24,12.00
2015,02,15,15,25,12.00
2015,02,15,15,26,12.00
2015,02,15,15,27,12.00
2015,02,15,15,28,12.00
2015,02,15,15,29,12.00
2015,02,15,15,30,12.00
2015,02,15,15,31,12.00
2015,02,15,15,32,12.00
2015,02,15,15,33,12.10
2015,02,15,15,34,12.20
2015,02,15,15,35,12.10
2015,02,15,15,36,12.10
2015,02,15,15,37,12.10
2015,02,15,15,38,12.10
2015,02,15,15,40,11.90
2015,02,15,15,41,11.80
2015,02,15,15,42,11.70
2015,02,15,15,43,11.60
2015,02,15,15,44,11.30
2015,02,15,15,45,11.20
2015,02,15,15,46,11.10
2015,02,15,15,47,11.00
2015,02,15,15,48,10.90
2015,02,15,15,49,10.90
2015,02,15,15,50,10.90
2015,02,15,15,51,10.90
2015,02,15,15,52,10.90
2015,02,15,15,53,10.90
2015,02,15,15,54,10.90
2015,02,15,15,55,10.90
2015,02,15,15,56,10.90
2015,02,15,15,57,10.90
2015,02,15,15,58,10.90
2015,02,15,15,59,10.90
2015,02,15,16,00,10.90
2015,02,15,16,01,10.90
2015,02,15,16,02,10.90
2015,02,15,16,03,10.80
2015,02,15,16,04,10.80
2015,02,15,16,05,10.80
2015,02,15,16,06,10.70
2015,02,15,16,07,10.70
2015,02,15,16,08,10.70
2015,02,15,16,09,10.70
2015,02,15,16,10,10.70
2015,02,15,16,11,10.70
2015,02,15,16,12,10.80
2015,02,15,16,13,10.80
2015,02,15,16,14,10.80
2015,02,15,16,15,10.80
2015,02,15,16,16,10.80
2015,02,15,16,17,10.80
2015,02,15,16,18,10.80
2015,02,15,16,19,10.70
2015,02,15,16,20,10.70
2015,02,15,16,21,10.70
2015,02,15,16,22,10.60
2015,02,15,16,23,10.60
2015,02,15,16,24,10.60
2015,02,15,16,25,10.60
2015,02,15,16,26,10.60
2015,02,15,16,27,10.60
2015,02,15,16,28,10.50
2015,02,15,16,29,10.50
2015,02,15,16,30,10.50
2015,02,15,16,31,10.40
2015,02,15,16,32,10.40
2015,02,15,16,33,10.40
2015,02,15,16,34,10.40
2015,02,15,16,35,10.30
2015,02,15,16,36,10.30
2015,02,15,16,37,10.20
2015,02,15,16,38,10.10
2015,02,15,16,39,10.10
2015,02,15,16,40,10.10
2015,02,15,16,41,10.10
2015,02,15,16,42,10.10
2015,02,15,16,43,10.10
2015,02,15,16,44,10.10
2015,02,15,16,45,10.10
2015,02,15,16,46,10.10
2015,02,15,16,47,10.10
2015,02,15,16,48,10.20
2015,02,15,16,49,10.20
2015,02,15,16,50,10.20
2015,02,15,16,51,10.10
2015,02,15,16,52,10.10
2015,02,15,16,53,10.10
2015,02,15,16,54,10.10
2015,02,15,16,55,10.10
2015,02,15,16,56,10.10
2015,02,15,16,57,10.00
2015,02,15,16,58,10.00
2015,02,15,16,59,9.90
2015,02,15,17,00,9.90
2015,02,15,17,01,9.80
2015,02,15,17,02,9.80
2015,02,15,17,03,9.70
2015,02,15,17,04,9.70
2015,02,15,17,05,9.70
2015,02,15,17,06,9.70
2015,02,15,17,07,9.70
2015,02,15,17,08,9.70
2015,02,15,17,09,9.70
2015,02,15,17,10,9.60
2015,02,15,17,11,9.50
2015,02,15,17,12,9.40
2015,02,15,17,13,9.40
2015,02,15,17,14,9.30
2015,02,15,17,15,9.20
2015,02,15,17,16,9.10
2015,02,15,17,17,9.10
2015,02,15,17,18,9.00
2015,02,15,17,19,9.00
2015,02,15,17,20,8.90
2015,02,15,17,21,8.90
2015,02,15,17,22,8.80
2015,02,15,17,23,8.80
2015,02,15,17,24,8.80
2015,02,15,17,25,8.70
2015,02,15,17,26,8.70
2015,02,15,17,27,8.70
2015,02,15,17,28,8.70
2015,02,15,17,29,8.60
2015,02,15,17,30,8.60
2015,02,15,17,31,8.50
2015,02,15,17,32,8.50
2015,02,15,17,33,8.40
2015,02,15,17,34,8.40
2015,02,15,17,35,8.30
2015,02,15,17,36,8.30
2015,02,15,17,37,8.30
2015,02,15,17,38,8.30
2015,02,15,17,39,8.20
2015,02,15,17,40,8.20
2015,02,15,17,41,8.20
2015,02,15,17,42,8.20
2015,02,15,17,43,8.20
2015,02,15,17,44,8.20
2015,02,15,17,45,8.10
2015,02,15,17,46,8.10
2015,02,15,17,47,8.10
2015,02,15,17,48,8.10
2015,02,15,17,49,8.10
2015,02,15,17,50,8.10
2015,02,15,17,51,8.00
2015,02,15,17,52,8.00
2015,02,15,17,53,7.90
2015,02,15,17,54,7.90
2015,02,15,17,55,7.90
2015,02,15,17,56,7.90
2015,02,15,17,57,7.90
2015,02,15,17,58,7.80
2015,02,15,17,59,7.80
2015,02,15,18,00,7.80
2015,02,15,18,01,7.70